Location: Pcim
(49.7500°N, 19.9670°E)
Time: 19:31:48
(UTC+02:00)

CUTE 1.7 + AOD 2 - Pass Details

Date: 25 April 2024
Orbit: 569 x 586 km, 97.8° (Epoch: 25 May)

Event Time Altitude Azimuth Distance (km) Brightness Sun altitude
Rises 03:53:08 0° 19° (NNE) 2,791 ? -13.8°
Reaches altitude 10° 03:55:23 10° 26° (NNE) 1,886 ? -13.5°
Maximum altitude 03:59:16 43° 98° (E) 814 ? -13.1°
Drops below altitude 10° 04:03:08 10° 171° (S) 1,867 ? -12.6°
Enters shadow 04:04:31 - 176° (S) 2,418 ? -12.4°
